CUBESAT XI-V

Last updated on Sat Apr 13 2024 01:02:57 GMT+0100 (British Summer Time)

1 28895U 05043F 24103.30751970 .00002278 00000+0 41262-3 0 9992 2 28895 98.1911 239.1001 0015718 201.6034 158.4509 14.67224060984798
UTC large
Height (km)
Speed (km/s)
/
Latitude / Longitude
Inclination (degrees)
Orbital Period (minutes)
Azimuth
Elevation
Range (km)
Doppler Factor

Next 0 passes for location: London (51.5072 / 0.1276)

Sorry there are no passes over London.